This is the latest recevied weather packets stored in our database for station/object WL7CLI. If no packets are shown the sender has not sent any weather packets the latest 1 day(s).
| Time | Temp. | Humidity | Pressure | Rain* | Wind** | Luminosity | Snow |
|---|---|---|---|---|---|---|---|
| 1777989504 | 10.56° C | 55% | 1010.8 hPa | 0 mm | 0 m/s | - | - |
| 1777989499 | 10.56° C | 55% | 1010.8 hPa | 0 mm | - | - | - |
| 1777989374 | 10.56° C | 55% | 1010.8 hPa | 0 mm | - | - | - |
| 1777988298 | 10° C | 67% | 1010.6 hPa | 0 mm | - | - | - |
| 1777988175 | 10° C | 67% | 1010.6 hPa | 0 mm | - | - | - |
| 1777987704 | 10° C | 71% | 1010.5 hPa | 0 mm | 0 m/s | - | - |
| 1777987099 | 10° C | 75% | 1010.4 hPa | 0 mm | - | - | - |
| 1777986974 | 10° C | 75% | 1010.4 hPa | 0 mm | - | - | - |
| 1777985904 | 9.44° C | 76% | 1010.1 hPa | 0 mm | 0 m/s | - | - |
| 1777985898 | 9.44° C | 76% | 1010.1 hPa | 0 mm | - | - | - |
| 1777985771 | 9.44° C | 76% | 1010.1 hPa | 0 mm | - | - | - |
| 1777984700 | 8.33° C | 83% | 1010.3 hPa | 0 mm | - | - | - |
| 1777984586 | 8.33° C | 83% | 1010.4 hPa | 0 mm | - | - | - |
| 1777984104 | 7.78° C | 84% | 1010.6 hPa | 0 mm | 0 m/s | - | - |
| 1777983499 | 7.78° C | 84% | 1010.5 hPa | 0 mm | - | - | - |
| 1777983372 | 7.78° C | 85% | 1010.5 hPa | 0 mm | - | - | - |
| 1777982305 | 7.22° C | 87% | 1010.6 hPa | 0 mm | 0 m/s | - | - |
| 1777982299 | 7.22° C | 87% | 1010.5 hPa | 0 mm | - | - | - |
| 1777982174 | 7.22° C | 87% | 1010.5 hPa | 0 mm | - | - | - |
| 1777981099 | 6.67° C | 86% | 1010.6 hPa | 0 mm | - | - | - |
| 1777980972 | 6.67° C | 86% | 1010.6 hPa | 0 mm | - | - | - |
| 1777980504 | 6.67° C | 85% | 1010.6 hPa | 0 mm | 0 m/s | - | - |
| 1777979899 | 6.67° C | 84% | 1010.5 hPa | 0 mm | - | - | - |
| 1777979772 | 6.67° C | 84% | 1010.5 hPa | 0 mm | - | - | - |
| 1777978704 | 7.22° C | 83% | 1010.2 hPa | 0 mm | 0 m/s | - | - |
* Rain latest hour (hover to see other rain measurements)
** Current wind speed in m/s (hover to see current wind gust speed)